Terminal Aerodrome Forecast
Issued by NWS

Home | Current Version | Previous Version | Text Only | Print | Product List | Glossary On
Versions: 1 2 3 4 5 6 7 8 9 10 11 12 13 14 15 16 17 18
000
FTUS41 KBGM 041612 AAC
TAFELM
TAF AMD
KELM 041612Z 0416/0512 18006KT P6SM OVC025
     FM041900 20005KT P6SM BKN040
      TEMPO 0421/0423 4SM -TSRA BR OVC025CB
     FM050000 VRB03KT P6SM FEW045
     FM050500 00000KT 1/2SM FG OVC002
      TEMPO 0505/0507 3SM BR SCT002=

USA.gov is the U.S. government's official web portal to all federal, state and local government web resources and services.